Weather in Mir

Belarus     53°27′12″N   26°27′56″E
temp.,
°C
wind,
m/s
gust,
m/s
humid.,
%
clouds,
%
prec.,
mm/h
press.,
hPa
HPBL,
m
20 april, tue
tue2000:00+6ene3585100 0.0 1019103
03:00+5ene3689100 0.0 1018128
06:00+5ene269199 0.0 1017159
09:00+6ne369498 2.1 1016357
12:00+9ne3472100 0.1 1015806
15:00+9nne347471 0.3 1014683
18:00+10nne3364100 0.1 10121229
21:00+7ne248096 0.3 1012119
21 april, wed
wed2100:00+4ene22895 0.0 101219
03:00+3ne11935 0.0 101110
06:00+2ne119576 0.0 101110
09:00+5se1186100 0.0 1011111
12:00+10sw336482 0.0 1010942
15:00+12sw4460100 0.1 10091384
18:00+12sw3564100 0.4 1008974
21:00+8sw228551 1.9 100922
22 april, thu
thu2200:00+7ssw228683 0.2 100919
03:00+6sw228846 0.2 100921
06:00+5ssw339061 0.0 100943
09:00+10ssw587757 0.2 1009310
12:00+12w796656 1.4 10101296
15:00+11wsw696280 1.8 10111347
18:00+11wsw5754100 0.0 10111822
21:00+7wsw3759100 0.0 1011267
23 april, fri
fri2300:00+5w4970100 0.0 1012397
03:00+2wsw410841 0.0 1012319
06:00+1wsw49925 0.0 1013308
09:00+4wsw58655 0.0 10141001
12:00+6wsw6755100 0.2 10131531
15:00+7w6952100 1.2 10132104
18:00+5w10117699 0.3 10151051
21:00+2wsw389099 0.7 1015316
24 april, sat
sat2400:00+2wnw6887100 0.1 1015831
03:00+1wnw6119696 0.8 1015623
06:00−2wnw5129192 0.1 1017514
09:00+2wnw6106923 0.1 1017794
12:00+5wnw81055100 0.8 10162039
15:00+7w7104988 1.5 10162091
18:00+6wnw796278 0.7 10151346
21:00+2w397672 1.3 1016172